Weather in Miri

Malaysia     4°25′31″N   114°00′26″E
temp.,
°C
wind,
m/s
gust,
m/s
humid.,
%
clouds,
%
prec.,
mm/h
press.,
hPa
HPBL,
m
23 april, fri
fri2323:00+27nw127012 0.0 1010402
02:00+26sse127694 0.0 1009199
05:00+25sse238261 0.0 1009281
08:00+25sse338477 0.4 1011230
11:00+29sw456814 0.0 1011817
14:00+29wsw677080 0.0 1008654
17:00+29w577043 0.0 1008700
20:00+29wnw577582 0.1 1009552
24 april, sat
sat2423:00+28wnw457866 0.4 1011470
02:00+27ssw1280100 2.7 1009211
05:00+24se3494100 1.9 1010142
08:00+26se338796 3.3 1012172
11:00+30sw226478 0.0 1011673
14:00+29w4465100 0.0 1008562
17:00+29nw557095 0.0 1007589
20:00+29nw4574100 0.0 1010467
25 april, sun
sun2523:00+28nne2377100 0.6 1011455
02:00+26e2286100 1.2 1009140
05:00+25ese239154 0.6 1009128
08:00+26ese3387100 0.7 1012171
11:00+29nw216950 0.0 1011655
14:00+30nw426937 0.0 1009664
17:00+30nw456811 0.0 1008693
20:00+29nnw35737 0.0 1010500
26 april, mon
mon2623:00+28nne237333 0.0 1011460
02:00+26ese228242 0.0 1009144
05:00+25ese238789 0.0 1009123
08:00+27ese228092 0.0 1011225
11:00+30wnw216668 0.6 1011751
14:00+30nw43656 0.6 1009747
17:00+29nw446724 0.0 1008655
20:00+28nnw347263 0.0 1010516
27 april, tue
tue2723:00+28nne2375100 0.4 1011511
02:00+26e2282100 0.4 1010188
05:00+25ese3391100 0.0 1010128
08:00+26se338681 0.0 1012193
11:00+30wnw21655 0.0 1011670
14:00+30nw44666 0.1 1009764
17:00+29nw446994 0.0 1008807
20:00+28n4576100 0.3 1010589